TimeEST,TemperatureF,Dew PointF,Humidity,Sea Level PressureIn,VisibilityMPH,Wind Direction,Wind SpeedMPH,Gust SpeedMPH,PrecipitationIn,Events,Conditions,WindDirDegrees,DateUTC
12:15 AM,5.0,-7.6,56,29.57,10.0,West,13.8,24.2,N/A,,Clear,260,2013-01-21 05:15:00
12:35 AM,5.0,-7.6,56,29.58,10.0,WSW,15.0,21.9,N/A,,Partly Cloudy,250,2013-01-21 05:35:00
12:55 AM,3.2,-7.6,61,29.58,10.0,WSW,12.7,16.1,N/A,,Scattered Clouds,250,2013-01-21 05:55:00
1:15 AM,3.2,-7.6,61,29.59,10.0,WSW,10.4,-,N/A,,Mostly Cloudy,240,2013-01-21 06:15:00
1:35 AM,3.2,-5.8,66,29.60,10.0,WSW,10.4,16.1,N/A,,Partly Cloudy,250,2013-01-21 06:35:00
1:55 AM,3.2,-7.6,61,29.60,10.0,WSW,15.0,25.3,N/A,,Clear,240,2013-01-21 06:55:00
2:15 AM,3.2,-9.4,56,29.62,10.0,West,12.7,23.0,N/A,,Clear,260,2013-01-21 07:15:00
2:35 AM,3.2,-7.6,61,29.61,10.0,WSW,13.8,19.6,N/A,,Clear,250,2013-01-21 07:35:00
2:55 AM,3.2,-9.4,56,29.62,10.0,WSW,10.4,19.6,N/A,,Clear,250,2013-01-21 07:55:00
3:15 AM,3.2,-9.4,56,29.62,10.0,WSW,11.5,19.6,N/A,,Clear,250,2013-01-21 08:15:00
3:35 AM,1.4,-9.4,61,29.63,10.0,WSW,12.7,16.1,N/A,,Clear,250,2013-01-21 08:35:00
3:55 AM,1.4,-9.4,61,29.64,10.0,WSW,13.8,23.0,N/A,,Clear,250,2013-01-21 08:55:00
4:15 AM,1.4,-9.4,61,29.65,10.0,West,16.1,25.3,N/A,,Clear,260,2013-01-21 09:15:00
4:35 AM,1.4,-11.2,56,29.66,10.0,WSW,15.0,21.9,N/A,,Clear,250,2013-01-21 09:35:00
4:55 AM,1.4,-11.2,56,29.67,10.0,WSW,17.3,24.2,N/A,,Clear,250,2013-01-21 09:55:00
5:15 AM,-0.4,-11.2,60,29.67,10.0,West,15.0,23.0,N/A,,Clear,260,2013-01-21 10:15:00
5:35 AM,-0.4,-11.2,60,29.68,10.0,WSW,17.3,23.0,N/A,,Clear,250,2013-01-21 10:35:00
5:55 AM,-0.4,-13.0,55,29.68,10.0,West,16.1,24.2,N/A,,Clear,270,2013-01-21 10:55:00
6:15 AM,-0.4,-11.2,60,29.68,10.0,WSW,17.3,21.9,N/A,,Clear,240,2013-01-21 11:15:00
6:35 AM,-0.4,-13.0,55,29.69,10.0,WSW,13.8,24.2,N/A,,Clear,240,2013-01-21 11:35:00
7:15 AM,-2.2,-11.2,66,29.71,10.0,WSW,13.8,17.3,N/A,,Clear,240,2013-01-21 12:15:00
7:35 AM,-2.2,-13.0,60,29.72,10.0,WSW,13.8,19.6,N/A,,Clear,240,2013-01-21 12:35:00
7:55 AM,-0.4,-13.0,55,29.74,10.0,WSW,12.7,21.9,N/A,,Clear,240,2013-01-21 12:55:00
8:15 AM,-0.4,-13.0,55,29.75,10.0,WSW,13.8,23.0,N/A,,Clear,240,2013-01-21 13:15:00
8:35 AM,-0.4,-14.8,51,29.76,10.0,WSW,15.0,23.0,N/A,,Clear,240,2013-01-21 13:35:00
8:55 AM,-0.4,-13.0,55,29.77,10.0,WSW,10.4,18.4,N/A,,Clear,250,2013-01-21 13:55:00
9:15 AM,1.4,-14.8,47,29.78,10.0,WSW,13.8,19.6,N/A,,Clear,250,2013-01-21 14:15:00
9:35 AM,1.4,-11.2,56,29.80,10.0,WSW,13.8,20.7,N/A,,Clear,240,2013-01-21 14:35:00
9:55 AM,1.4,-13.0,51,29.81,10.0,WSW,12.7,19.6,N/A,,Clear,250,2013-01-21 14:55:00
10:35 AM,3.2,-14.8,43,29.81,10.0,WSW,11.5,19.6,N/A,,Clear,240,2013-01-21 15:35:00
10:55 AM,3.2,-11.2,51,29.80,10.0,WSW,8.1,18.4,N/A,,Clear,250,2013-01-21 15:55:00
11:15 AM,5.0,-13.0,43,29.79,10.0,West,10.4,20.7,N/A,,Clear,260,2013-01-21 16:15:00
11:35 AM,6.8,-11.2,44,29.79,10.0,WSW,13.8,19.6,N/A,,Clear,250,2013-01-21 16:35:00
11:55 AM,6.8,-11.2,44,29.78,10.0,WSW,11.5,19.6,N/A,,Clear,240,2013-01-21 16:55:00
12:15 PM,8.6,-11.2,40,29.79,10.0,West,10.4,18.4,N/A,,Clear,260,2013-01-21 17:15:00
12:35 PM,8.6,-9.4,44,29.78,10.0,WSW,17.3,25.3,N/A,,Clear,250,2013-01-21 17:35:00
12:55 PM,8.6,-9.4,44,29.78,10.0,WSW,12.7,21.9,N/A,,Clear,240,2013-01-21 17:55:00
1:15 PM,8.6,-11.2,40,29.78,10.0,WSW,18.4,24.2,N/A,,Clear,250,2013-01-21 18:15:00
1:35 PM,8.6,-9.4,44,29.79,10.0,WSW,17.3,24.2,N/A,,Clear,250,2013-01-21 18:35:00
1:55 PM,8.6,-9.4,44,29.79,10.0,WSW,13.8,24.2,N/A,,Clear,240,2013-01-21 18:55:00
2:15 PM,8.6,-11.2,40,29.80,10.0,WSW,10.4,26.5,N/A,,Clear,250,2013-01-21 19:15:00
2:35 PM,8.6,-11.2,40,29.81,10.0,WSW,12.7,23.0,N/A,,Clear,250,2013-01-21 19:35:00
2:55 PM,8.6,-9.4,44,29.81,10.0,WSW,13.8,19.6,N/A,,Clear,240,2013-01-21 19:55:00
3:15 PM,8.6,-11.2,40,29.82,10.0,WSW,11.5,16.1,N/A,,Clear,240,2013-01-21 20:15:00
3:35 PM,6.8,-9.4,48,29.82,10.0,WSW,10.4,16.1,N/A,,Clear,240,2013-01-21 20:35:00
3:55 PM,6.8,-9.4,48,29.82,10.0,SW,8.1,-,N/A,,Clear,230,2013-01-21 20:55:00
4:15 PM,6.8,-9.4,48,29.82,10.0,WSW,8.1,-,N/A,,Clear,250,2013-01-21 21:15:00
4:35 PM,6.8,-7.6,52,29.82,10.0,WSW,3.5,-,N/A,,Clear,240,2013-01-21 21:35:00
4:55 PM,6.8,-9.4,48,29.82,10.0,WSW,5.8,16.1,N/A,,Clear,240,2013-01-21 21:55:00
5:15 PM,5.0,-9.4,52,29.83,10.0,Calm,Calm,-,N/A,,Clear,0,2013-01-21 22:15:00
5:35 PM,3.2,-9.4,56,29.83,10.0,WSW,6.9,-,N/A,,Clear,250,2013-01-21 22:35:00
5:55 PM,3.2,-11.2,51,29.82,10.0,WNW,4.6,-,N/A,,Clear,290,2013-01-21 22:55:00
6:15 PM,3.2,-9.4,56,29.83,10.0,Calm,Calm,-,N/A,,Clear,0,2013-01-21 23:15:00
6:35 PM,-0.4,-11.2,60,29.83,10.0,ENE,3.5,-,N/A,,Clear,60,2013-01-21 23:35:00
6:55 PM,-0.4,-9.4,66,29.84,10.0,Calm,Calm,-,N/A,,Clear,0,2013-01-21 23:55:00
7:15 PM,-0.4,-11.2,60,29.85,10.0,Calm,Calm,-,N/A,,Clear,0,2013-01-22 00:15:00
7:35 PM,-4.0,-7.6,85,29.85,10.0,Calm,Calm,-,N/A,,Clear,0,2013-01-22 00:35:00
7:55 PM,-2.2,-14.8,55,29.86,10.0,Calm,Calm,-,N/A,,Clear,0,2013-01-22 00:55:00
8:35 PM,-5.8,-7.6,92,29.86,10.0,Calm,Calm,-,N/A,,Clear,0,2013-01-22 01:35:00
8:55 PM,-7.6,-20.2,54,29.86,10.0,Calm,Calm,-,N/A,,Clear,0,2013-01-22 01:55:00
9:15 PM,-7.6,-25.6,41,29.86,10.0,Calm,Calm,-,N/A,,Clear,0,2013-01-22 02:15:00
9:35 PM,-7.6,-29.2,34,29.87,10.0,Calm,Calm,-,N/A,,Clear,0,2013-01-22 02:35:00
9:55 PM,-7.6,-18.4,59,29.87,10.0,Calm,Calm,-,N/A,,Clear,0,2013-01-22 02:55:00
10:15 PM,-7.6,-20.2,54,29.86,10.0,Calm,Calm,-,N/A,,Clear,0,2013-01-22 03:15:00
10:35 PM,-7.6,-20.2,54,29.85,10.0,Calm,Calm,-,N/A,,Clear,0,2013-01-22 03:35:00
10:55 PM,-9.4,-9999,N/A,-9999,10.0,Calm,Calm,-,N/A,,Clear,0,2013-01-22 03:55:00
11:15 PM,-7.6,-9999,N/A,-9999,10.0,Calm,Calm,-,N/A,,Clear,0,2013-01-22 04:15:00
11:35 PM,-9.4,-9999,N/A,-9999,10.0,Calm,Calm,-,N/A,,Clear,0,2013-01-22 04:35:00
11:55 PM,-7.6,-27.4,38,29.84,10.0,Calm,Calm,-,N/A,,Clear,0,2013-01-22 04:55:00